Location: Freistadt
(48.5112°N, 14.5013°E)
Time: 08:51:16
(UTC+02:00)

MOZHAYETS 4 - Pass Details

Date: 01 April 2023
Orbit: 657 x 675 km, 98.2° (Epoch: 03 June)

Event Time Altitude Azimuth Distance (km) Brightness Sun altitude
Exits shadow 03:13:29 43° 27° (NNE) 931 8.8 -30.3°
Drops below altitude 10° 03:16:54 10° 355° (N) 2,090 10.8 -29.9°
Sets 03:19:10 0° 350° (N) 3,010 11.6 -29.7°
